Location: Ceska republika
(50.0000°N, 15.0000°E)
Time: 04:53:02
(UTC+01:00)

ISS - Visible Passes

Search period start: 25 February 2018 00:00
Search period end: 07 March 2018 00:00
Orbit: 402 x 407 km, 51.6° (Epoch: 25 February)

Date Brightness Start Highest point End Pass type
(mag) Time Alt. Az. Time Alt. Az. Time Alt. Az.
27 Feb -0.8 05:34:22 10° SSE 05:35:45 12° SE 05:37:07 10° ESE visible
01 Mar -1.7 05:24:41 10° SSW 05:27:20 23° SE 05:30:00 10° E visible
02 Mar -1.2 04:34:12 13° SSE 04:35:16 14° SE 04:37:09 10° ESE visible
03 Mar -2.8 05:16:53 17° SW 05:19:00 41° SSE 05:22:06 10° E visible
04 Mar -2.2 04:26:47 26° SSE 04:26:48 26° SE 04:29:37 10° E visible
04 Mar -3.8 05:59:45 10° WSW 06:03:03 87° N 06:06:20 10° ENE visible
05 Mar -0.6 03:36:35 11° ESE 03:36:35 11° ESE 03:36:53 10° E visible
05 Mar -3.7 05:09:14 29° SW 05:10:43 70° SSE 05:13:59 10° ENE visible
06 Mar -2.8 04:18:58 42° ESE 04:18:58 42° ESE 04:21:36 10° ENE visible
06 Mar -3.7 05:51:36 10° W 05:54:51 68° N 05:58:08 10° ENE visible
